Location: Betzi
(47.2343°N, 9.5260°E)
Time: 16:03:11
(UTC+00:00)

USA 306 - Pass Details

Date: 27 May 2022
Orbit: 545 x 556 km, 54.0° (Epoch: 20 June)

Event Time Altitude Azimuth Distance (km) Brightness Sun altitude
Exits shadow 00:02:22 64° 163° (SSE) 617 2.7 -20.8°
Maximum altitude 00:02:34 65° 144° (SE) 611 2.8 -20.8°
Drops below altitude 10° 00:06:43 10° 63° (ENE) 1,845 6.0 -20.7°
Sets 00:08:59 0° 60° (ENE) 2,746 7.0 -20.6°
